Вернуться в каталог

COSMOS 2499 DEB

АктивенPO
NORAD 49926·DEBRIS·🇷🇺 Russia

Запущен May 23, 2014 с Plesetsk Cosmodrome

Loading…

Ближайшие Пролёты (ближайшие 24 часа)

TLE

СвежийSource: Space-Track

Эпоха: Sep 14, 2026, 02:45 UTC

1 49926U 14028H   26257.11465016  .00009764  00000-0  23447-1 0  9998
2 49926  82.3967 171.4489 0360563  70.7782 293.1973 13.01234608229516

Отслеживайте COSMOS 2499 DEB в реальном времени с AllMySat

Download on the App Store